Location: Strawberry
(45.6646°N, 111.9596°W)
Time: 21:52:40
(UTC+00:00)

Explorer 11/Cluster Stage 4 - Pass Details

Date: 06 October 2022
Orbit: 466 x 1248 km, 28.8° (Epoch: 28 November)

Event Time Altitude Azimuth Distance (km) Brightness Sun altitude
Rises 20:08:54 0° 247° (WSW) 4,174 10.7 37.6°
Reaches altitude 10° 20:12:44 10° 232° (SW) 3,168 10.5 37.4°
Maximum altitude 20:18:10 20° 189° (S) 2,375 10.8 37.1°
Drops below altitude 10° 20:23:13 10° 145° (SE) 2,898 10.0 36.8°
Sets 20:26:32 0° 129° (SE) 3,719 10.2 36.6°
